Tracking 31027 objects as of 19-Jul-2025
HD Live streaming from Space Station
objects crossing your sky now

DELTA 1 DEB

Track DELTA 1 DEB now!
10-day predictions


NORAD ID: 19590
Int'l Code: 1973-086HG
Perigee: 1,512.4 km
Apogee: 1,584.6 km
Inclination: 102.5 °
Period: 116.9 minutes
Semi major axis: 7919 km
RCS: 0.0128 m2 (small)
Launch date: November 6, 1973
Source: United States (US)
Launch site: AIR FORCE WESTERN TEST RANGE (AFWTR)

Note: This is SATELLITE DEBRIS
Your satellite tracking list
STARLINK-2062
Track 1 satellite(s)




NASA's NSSDC Master Catalog

Two Line Element Set (TLE):
1 19590U 73086HG  25199.87818352 -.00000041  00000-0  44339-4 0  9999
2 19590 102.4773 214.3165 0045545 292.1001 188.7541 12.31846005814377
Source of the keplerian elements: AFSPC